Location: Le Gr�zie
(43.6000°N, 13.5000°E)
Time: 00:52:30
(UTC+00:00)

ARGOS - Pass Details

Date: 09 April 2020
Orbit: 820 x 834 km, 98.5° (Epoch: 02 June)

Event Time Altitude Azimuth Distance (km) Brightness Sun altitude
Rises 19:21:19 0° 184° (S) 3,356 6.1 -17.5°
Reaches altitude 10° 19:23:48 10° 192° (SSW) 2,425 5.4 -17.8°
Maximum altitude 19:28:52 42° 262° (W) 1,170 4.3 -18.6°
Drops below altitude 10° 19:33:57 10° 333° (NNW) 2,433 6.5 -19.4°
Sets 19:36:27 0° 340° (NNW) 3,369 7.2 -19.8°
